Location: Temple Hill
(37.3073°N, 88.6303°W)
Time: 17:39:51
(UTC+00:00)

Cosmos 1937 Rocket - Pass Details

Date: 23 November 2020
Orbit: 745 x 781 km, 74.0° (Epoch: 20 January)

Event Time Altitude Azimuth Distance (km) Brightness Sun altitude
Rises 12:07:37 0° 192° (SSW) 3,171 6.8 -7.2°
Reaches altitude 10° 12:09:58 10° 191° (S) 2,252 6.1 -6.8°
Maximum altitude 12:15:03 76° 106° (ESE) 772 3.7 -5.9°
Drops below altitude 10° 12:20:12 10° 21° (NNE) 2,278 6.0 -4.9°
Sets 12:22:34 0° 20° (NNE) 3,211 6.7 -4.5°
